STARLINK-32622, 61927

Orbit data source: Space-Track

STARLINK-32622, 61927 is a payload satellite owned by SpaceX/Seattle (US) in LEO that was launched on Mon, 11 Nov 2024 UTC via an FALCON 9 launch vehicle from the Air Force Eastern Test Range (AFETR). Payload-class satellites include a variety of spacecraft equipped with specific instruments for various scientific and technological missions. These include communications satellites like Starlink; space stations such as the ISS; scientific satellites like the Hubble; Earth observation satellites from companies like Planet Labs, Umbra, and HawkEye 360; GPS; miniature CubeSats for education and research; and military/defense satellites.

Loading next visibility...
Identifier
61927, 2024-207R
Orbit
LEO
Country
Flag of USUS
Related business
Manufacturer
SpaceX/Seattle
Mission
Operational Commercial Communications
Bus & Motor
STARLINK V2M, Unknown motor
Mass
730 kg wet, ~700 kg dry
Launch date (UTC)
2024-11-11 (2 years ago)
Launch vehicle
FALCON 9
Launch site
Air Force Eastern Test Range (AFETR)
Object type
Payload
Rocket body
Debris
Shape & HBR
Box + 2 Pan, 17.7 m
Radar Cross Section
33.884 m², Large (>1 m²)

Expand to show TLE details & history
Last TLE update: 9 hours ago

TLE from 9 hours ago
0 STARLINK-32622
1 61927U 24207R   26145.56504627  .00019059  00000-0  69992-3 0  9995
2 61927  43.0016 207.2097 0002933 268.2766  91.7749 15.27597414 86480
Epoch: 2026-05-25T13:33Z
TLE epoch observation values (Epoch: 2026-05-25T13:33:39.997Z)
Latitude
-0.00008°
Longitude
120.64194°
Altitude
482.835 km
Speed
7.626 km/s
True Right ascension
13h 48m 50s
True Declination
0° 00' 00"
Sunlit
Object was in full shadow at epoch
Visualization orbit readout
Latitude
Unknown
Longitude
Unknown
Altitude
Unknown
Speed
Unknown
Apparent Right ascension
Unknown
Apparent Declination
Unknown
Sunlit
N/A
Visualization observer readout
Local Sidereal Time
07:18:00
Azimuth
Unknown
Elevation
Unknown
Doppler factor
Unknown
Orbital elements
Apogee altitude
486.955 km
Perigee altitude
482.929 km
Semi-major axis
6,863.079 km
Eccentricity
0.00029
Inclination
43.0016°
RAAN
207.2097°
Arg. of periapsis
268.2766°
True anomaly
91.80849°
Mean anomaly
91.7749°
Eccentric anomaly
91.7917°
Mean motion
3.81737 °/min
Orbital period
94.31 mins
BSTAR
0.00069992
Loading maneuver chart data...
Computing Atmospheric mass density...
Loading historical data...
Loading historical data...
Loading historical data...
Loading historical data...
Loading historical data...
Loading historical data...
Loading historical data...

Documentation

Showing up to 5 results
|